TimeCST,TemperatureF,Dew PointF,Humidity,Sea Level PressureIn,VisibilityMPH,Wind Direction,Wind SpeedMPH,Gust SpeedMPH,PrecipitationIn,Events,Conditions,WindDirDegrees,DateUTC
12:15 AM,41.2,39.4,93,30.00,10.0,NNW,19.6,27.6,N/A,,Overcast,330,2013-02-08 06:15:00
12:35 AM,41.2,39.2,93,30.01,10.0,NNW,17.3,25.3,N/A,,Overcast,330,2013-02-08 06:35:00
12:55 AM,41.0,38.7,91,30.01,10.0,NNW,18.4,25.3,N/A,,Overcast,330,2013-02-08 06:55:00
1:15 AM,40.3,38.3,93,30.02,10.0,NNW,21.9,27.6,N/A,,Overcast,330,2013-02-08 07:15:00
1:35 AM,40.1,38.3,93,30.03,10.0,NNW,19.6,26.5,N/A,,Overcast,330,2013-02-08 07:35:00
1:55 AM,39.7,37.6,92,30.04,10.0,NNW,23.0,28.8,N/A,,Overcast,340,2013-02-08 07:55:00
2:15 AM,39.2,37.4,93,30.05,10.0,NNW,19.6,27.6,N/A,,Overcast,330,2013-02-08 08:15:00
2:35 AM,39.2,36.7,91,30.05,10.0,NNW,21.9,27.6,N/A,,Overcast,330,2013-02-08 08:35:00
2:55 AM,39.2,36.5,90,30.05,10.0,NNW,18.4,27.6,N/A,,Overcast,330,2013-02-08 08:55:00
3:15 AM,39.2,36.3,89,30.06,10.0,NNW,19.6,24.2,N/A,,Overcast,330,2013-02-08 09:15:00
3:55 AM,38.3,35.6,90,30.08,10.0,NNW,18.4,25.3,N/A,,Overcast,340,2013-02-08 09:55:00
4:15 AM,38.3,34.9,87,30.09,10.0,NNW,23.0,27.6,N/A,,Overcast,330,2013-02-08 10:15:00
4:35 AM,38.1,34.7,87,30.10,7.0,NNW,18.4,28.8,N/A,,Overcast,340,2013-02-08 10:35:00
4:55 AM,37.8,35.6,92,30.11,5.0,NW,17.3,23.0,N/A,,Overcast,320,2013-02-08 10:55:00
5:15 AM,37.4,35.1,91,30.13,4.0,NNW,12.7,24.2,N/A,,Overcast,330,2013-02-08 11:15:00
5:35 AM,37.4,34.5,89,30.13,5.0,NNW,17.3,21.9,N/A,,Overcast,330,2013-02-08 11:35:00
5:55 AM,37.4,34.3,89,30.14,5.0,NW,17.3,21.9,N/A,,Overcast,320,2013-02-08 11:55:00
6:15 AM,36.9,33.3,87,30.15,5.0,NNW,19.6,28.8,N/A,,Overcast,340,2013-02-08 12:15:00
6:35 AM,36.7,33.4,88,30.17,5.0,NNW,15.0,19.6,N/A,,Overcast,330,2013-02-08 12:35:00
6:55 AM,36.5,32.7,86,30.18,7.0,NNW,13.8,19.6,N/A,,Overcast,340,2013-02-08 12:55:00
7:15 AM,35.6,32.0,87,30.19,10.0,NNW,17.3,23.0,N/A,,Overcast,340,2013-02-08 13:15:00
7:35 AM,35.6,31.6,85,30.21,10.0,North,19.6,26.5,N/A,,Overcast,350,2013-02-08 13:35:00
7:55 AM,35.6,32.0,87,30.22,10.0,NNW,13.8,20.7,N/A,,Overcast,340,2013-02-08 13:55:00
8:15 AM,35.4,32.0,87,30.23,10.0,NNW,21.9,26.5,N/A,,Overcast,340,2013-02-08 14:15:00
8:35 AM,35.2,31.3,85,30.24,10.0,North,16.1,-,N/A,,Overcast,350,2013-02-08 14:35:00
8:55 AM,35.6,31.5,85,30.25,10.0,NNW,15.0,23.0,N/A,,Overcast,340,2013-02-08 14:55:00
9:15 AM,35.6,31.3,84,30.26,10.0,NNW,18.4,21.9,N/A,,Overcast,340,2013-02-08 15:15:00
9:35 AM,35.2,30.9,84,30.27,10.0,NNW,15.0,23.0,N/A,,Overcast,330,2013-02-08 15:35:00
9:55 AM,35.6,31.3,84,30.28,10.0,NW,15.0,21.9,N/A,,Overcast,320,2013-02-08 15:55:00
10:15 AM,35.8,31.6,85,30.29,10.0,NNW,16.1,-,N/A,,Overcast,330,2013-02-08 16:15:00
10:35 AM,35.2,30.9,84,30.30,10.0,NNW,12.7,-,N/A,,Overcast,330,2013-02-08 16:35:00
10:55 AM,35.1,30.9,85,30.30,10.0,NNW,13.8,-,N/A,,Overcast,340,2013-02-08 16:55:00
11:15 AM,35.1,31.3,86,30.30,10.0,NNW,16.1,-,N/A,,Overcast,330,2013-02-08 17:15:00
11:35 AM,35.6,30.9,83,30.31,10.0,NNW,16.1,-,N/A,,Overcast,340,2013-02-08 17:35:00
11:55 AM,36.0,30.9,82,30.31,10.0,North,13.8,-,N/A,,Overcast,360,2013-02-08 17:55:00
12:15 PM,36.0,31.1,82,30.31,10.0,North,12.7,-,N/A,,Overcast,10,2013-02-08 18:15:00
12:35 PM,36.1,31.5,83,30.31,10.0,North,11.5,-,N/A,,Overcast,360,2013-02-08 18:35:00
12:55 PM,35.6,30.2,81,30.32,10.0,North,16.1,-,N/A,,Overcast,360,2013-02-08 18:55:00
1:15 PM,35.1,29.8,81,30.32,10.0,North,13.8,-,N/A,,Overcast,360,2013-02-08 19:15:00
1:35 PM,34.5,29.8,83,30.31,10.0,North,13.8,17.3,N/A,,Overcast,10,2013-02-08 19:35:00
1:55 PM,34.2,29.7,84,30.31,10.0,North,12.7,-,N/A,,Overcast,350,2013-02-08 19:55:00
2:15 PM,34.2,29.7,84,30.32,10.0,North,11.5,-,N/A,,Overcast,360,2013-02-08 20:15:00
2:35 PM,33.8,29.8,85,30.32,10.0,NNW,11.5,-,N/A,,Overcast,340,2013-02-08 20:35:00
2:55 PM,34.3,30.2,85,30.32,10.0,NNW,9.2,-,N/A,,Overcast,340,2013-02-08 20:55:00
3:15 PM,34.2,29.8,84,30.33,10.0,North,9.2,-,N/A,,Overcast,350,2013-02-08 21:15:00
3:35 PM,34.9,30.2,83,30.34,10.0,North,9.2,-,N/A,,Overcast,360,2013-02-08 21:35:00
3:55 PM,34.7,29.8,82,30.34,10.0,North,9.2,-,N/A,,Overcast,350,2013-02-08 21:55:00
4:15 PM,34.7,29.3,81,30.34,10.0,North,9.2,-,N/A,,Overcast,360,2013-02-08 22:15:00
4:35 PM,34.7,29.1,80,30.35,10.0,North,6.9,-,N/A,,Overcast,360,2013-02-08 22:35:00
4:55 PM,34.7,29.3,81,30.35,10.0,NNE,6.9,-,N/A,,Overcast,30,2013-02-08 22:55:00
5:15 PM,34.3,29.1,81,30.36,10.0,North,10.4,-,N/A,,Overcast,360,2013-02-08 23:15:00
5:35 PM,33.8,28.6,81,30.38,10.0,North,10.4,-,N/A,,Overcast,350,2013-02-08 23:35:00
5:55 PM,33.8,28.4,81,30.39,10.0,North,4.6,-,N/A,,Overcast,360,2013-02-08 23:55:00
6:15 PM,33.8,29.1,83,30.37,10.0,NNE,5.8,-,N/A,,Overcast,30,2013-02-09 00:15:00
6:35 PM,33.8,27.5,78,30.36,10.0,NE,5.8,-,N/A,,Overcast,50,2013-02-09 00:35:00
6:55 PM,33.6,28.2,81,30.36,10.0,North,9.2,-,N/A,,Overcast,10,2013-02-09 00:55:00
7:15 PM,33.6,28.4,81,30.36,10.0,NNE,8.1,-,N/A,,Overcast,30,2013-02-09 01:15:00
7:35 PM,33.4,28.2,81,30.36,10.0,NE,4.6,-,N/A,,Overcast,40,2013-02-09 01:35:00
7:55 PM,33.4,28.4,82,30.36,10.0,NE,8.1,-,N/A,,Overcast,50,2013-02-09 01:55:00
8:15 PM,33.6,28.2,81,30.37,10.0,NE,6.9,-,N/A,,Overcast,40,2013-02-09 02:15:00
8:35 PM,33.8,28.4,81,30.37,10.0,NNE,5.8,-,N/A,,Overcast,20,2013-02-09 02:35:00
8:55 PM,33.8,28.4,81,30.37,10.0,ENE,4.6,-,N/A,,Overcast,70,2013-02-09 02:55:00
9:15 PM,33.8,27.9,79,30.38,10.0,NE,5.8,-,N/A,,Overcast,50,2013-02-09 03:15:00
9:35 PM,33.6,27.5,78,30.38,10.0,ENE,4.6,-,N/A,,Overcast,60,2013-02-09 03:35:00
9:55 PM,33.4,27.9,80,30.38,10.0,East,3.5,-,N/A,,Overcast,80,2013-02-09 03:55:00
10:15 PM,33.3,27.3,79,30.38,10.0,Calm,Calm,-,N/A,,Overcast,0,2013-02-09 04:15:00
10:35 PM,33.1,27.3,79,30.38,10.0,ENE,8.1,-,N/A,,Overcast,70,2013-02-09 04:35:00
10:55 PM,32.9,27.1,79,30.38,10.0,ENE,6.9,-,N/A,,Overcast,70,2013-02-09 04:55:00
11:15 PM,33.1,27.5,80,30.37,10.0,ENE,5.8,-,N/A,,Overcast,70,2013-02-09 05:15:00
11:35 PM,32.9,26.6,78,30.37,10.0,East,4.6,-,N/A,,Overcast,90,2013-02-09 05:35:00
11:55 PM,32.9,26.6,78,30.37,10.0,ENE,4.6,-,N/A,,Overcast,70,2013-02-09 05:55:00